When you browse on this site, cookies collect data to enhance your experience and personalize the content and advertising you see.
Visit our Privacy Policy to learn more. By continuing to use the site, you agree to this use of cookies and data.
  • In Hungary
  • List of Countries
  • For 7 days
  • Water Temperature
  • Satellite Maps
  • Weather Map
  • News
  • Weather Widgets
  • user-avatar
    Login

    Hourly Weather Garmisch-Partenkirchen

    Today, 17 July, Wednesday

    Time Temperature Precipitation Wind Pressure Humidity
    00:00 +12°C° 0 mm 1 mps 676 mmHg 95%
    01:00 +12°C° 0 mm 1 mps 676 mmHg 95%
    02:00 +12°C° 0 mm 1 mps 676 mmHg 95%
    03:00 +12°C° 0 mm 1 mps 675 mmHg 95%
    04:00 +12°C° 0 mm 1 mps 675 mmHg 95%
    05:00 +13°C° 0 mm 1 mps 675 mmHg 90%
    06:00 +15°C° 0 mm 1 mps 675 mmHg 86%
    07:00 +16°C° 0 mm 1 mps 675 mmHg 81%
    08:00 +20°C° 0 mm 1 mps 676 mmHg 69%
    09:00 +22°C° 0 mm 1 mps 676 mmHg 57%
    10:00 +24°C° 0 mm 1 mps 677 mmHg 45%
    11:00 +25°C° 0 mm 1 mps 677 mmHg 44%
    12:00 +25°C° 0 mm 2 mps 676 mmHg 42%
    13:00 +26°C° 0 mm 2 mps 676 mmHg 41%
    14:00 +25°C° 0.5 mm 2 mps 676 mmHg 49%
    15:00 +24°C° 0.5 mm 2 mps 675 mmHg 57%
    16:00 +23°C° 0.5 mm 2 mps 675 mmHg 64%
    17:00 +20°C° 0.4 mm 2 mps 675 mmHg 72%
    18:00 +20°C° 0.4 mm 1 mps 675 mmHg 80%
    19:00 +19°C° 0.4 mm 1 mps 674 mmHg 88%
    20:00 +16°C° 0 mm 1 mps 674 mmHg 90%
    21:00 +15°C° 0 mm 1 mps 674 mmHg 92%
    22:00 +13°C° 0 mm 1 mps 674 mmHg 94%
    23:00 +13°C° 0 mm 1 mps 674 mmHg 94%

    Tomorrow, 18 July, Thursday

    Time Temperature Precipitation Wind Pressure Humidity
    00:00 +13°C° 0 mm 1 mps 674 mmHg 94%
    01:00 +12°C° 0 mm 1 mps 674 mmHg 94%
    02:00 +12°C° 0 mm 1 mps 674 mmHg 93%
    03:00 +12°C° 0 mm 1 mps 673 mmHg 93%
    04:00 +12°C° 0 mm 1 mps 673 mmHg 93%
    05:00 +13°C° 0 mm 1 mps 674 mmHg 90%
    06:00 +14°C° 0 mm 1 mps 674 mmHg 88%
    07:00 +15°C° 0 mm 1 mps 674 mmHg 86%
    08:00 +18°C° 0.2 mm 1 mps 675 mmHg 79%
    09:00 +20°C° 0.2 mm 1 mps 675 mmHg 72%
    10:00 +21°C° 0.2 mm 1 mps 675 mmHg 65%
    11:00 +22°C° 0.2 mm 1 mps 675 mmHg 62%
    12:00 +22°C° 0.2 mm 1 mps 675 mmHg 60%
    13:00 +21°C° 0.2 mm 2 mps 675 mmHg 57%
    14:00 +21°C° 0.5 mm 2 mps 675 mmHg 60%
    15:00 +22°C° 0.5 mm 1 mps 675 mmHg 62%
    16:00 +22°C° 0.5 mm 1 mps 675 mmHg 65%
    17:00 +21°C° 0.4 mm 1 mps 675 mmHg 71%
    18:00 +20°C° 0.4 mm 1 mps 675 mmHg 76%
    19:00 +18°C° 0.4 mm 1 mps 675 mmHg 82%
    20:00 +16°C° 0 mm 1 mps 675 mmHg 85%
    21:00 +15°C° 0 mm 1 mps 675 mmHg 87%
    22:00 +13°C° 0 mm 1 mps 675 mmHg 90%
    23:00 +13°C° 0 mm 1 mps 675 mmHg 90%

    Day after tomorrow, 19 July, Friday

    Time Temperature Precipitation Wind Pressure Humidity
    00:00 +13°C° 0 mm 1 mps 675 mmHg 89%
    01:00 +13°C° 0 mm 1 mps 675 mmHg 89%
    02:00 +13°C° 0 mm 1 mps 675 mmHg 89%
    03:00 +13°C° 0 mm 1 mps 675 mmHg 88%
    04:00 +13°C° 0 mm 1 mps 675 mmHg 88%
    05:00 +14°C° 0 mm 1 mps 675 mmHg 85%
    06:00 +15°C° 0 mm 1 mps 676 mmHg 82%
    07:00 +18°C° 0 mm 1 mps 676 mmHg 79%
    08:00 +20°C° 0 mm 1 mps 677 mmHg 69%
    09:00 +22°C° 0 mm 1 mps 677 mmHg 60%
    10:00 +24°C° 0 mm 1 mps 678 mmHg 50%
    11:00 +25°C° 0.2 mm 1 mps 677 mmHg 51%
    12:00 +25°C° 0.2 mm 1 mps 677 mmHg 51%
    13:00 +25°C° 0.2 mm 1 mps 677 mmHg 52%
    14:00 +24°C° 0.4 mm 1 mps 677 mmHg 55%
    15:00 +24°C° 0.4 mm 1 mps 677 mmHg 57%
    16:00 +23°C° 0.4 mm 2 mps 676 mmHg 60%
    17:00 +22°C° 0.3 mm 1 mps 676 mmHg 68%
    18:00 +21°C° 0.3 mm 1 mps 676 mmHg 77%
    19:00 +20°C° 0.3 mm 1 mps 677 mmHg 85%
    20:00 +18°C° 0.1 mm 1 mps 677 mmHg 88%
    21:00 +16°C° 0.1 mm 1 mps 676 mmHg 90%
    22:00 +15°C° 0.1 mm 1 mps 676 mmHg 93%
    23:00 +14°C° 0 mm 1 mps 676 mmHg 93%

    20 July, Saturday

    Time Temperature Precipitation Wind Pressure Humidity
    00:00 +14°C° 0 mm 1 mps 676 mmHg 93%
    01:00 +14°C° 0 mm 1 mps 676 mmHg 93%
    02:00 +14°C° 0 mm 1 mps 676 mmHg 93%
    03:00 +13°C° 0 mm 1 mps 676 mmHg 93%
    04:00 +13°C° 0 mm 1 mps 676 mmHg 92%
    05:00 +15°C° 0 mm 1 mps 676 mmHg 89%
    06:00 +16°C° 0 mm 1 mps 676 mmHg 86%
    07:00 +18°C° 0 mm 1 mps 677 mmHg 84%
    08:00 +22°C° 0 mm 1 mps 677 mmHg 71%
    09:00 +23°C° 0 mm 0 mps 678 mmHg 59%
    10:00 +26°C° 0 mm 0 mps 679 mmHg 46%
    11:00 +28°C° 0.1 mm 1 mps 679 mmHg 44%
    12:00 +29°C° 0.1 mm 1 mps 678 mmHg 42%
    13:00 +29°C° 0.1 mm 2 mps 678 mmHg 40%
    14:00 +28°C° 0.7 mm 1 mps 678 mmHg 50%
    15:00 +26°C° 0.7 mm 1 mps 677 mmHg 60%
    16:00 +24°C° 0.7 mm 1 mps 677 mmHg 70%
    17:00 +23°C° 1.2 mm 1 mps 677 mmHg 76%
    18:00 +22°C° 1.2 mm 1 mps 677 mmHg 82%
    19:00 +18°C° 1.2 mm 0 mps 677 mmHg 88%
    20:00 +19°C° 1.5 mm 1 mps 677 mmHg 91%
    21:00 +19°C° 1.5 mm 1 mps 678 mmHg 94%
    22:00 +17°C° 1.5 mm 2 mps 678 mmHg 97%
    23:00 +16°C° 1.4 mm 1 mps 678 mmHg 97%

    21 July, Sunday

    Time Temperature Precipitation Wind Pressure Humidity
    00:00 +16°C° 1.4 mm 1 mps 678 mmHg 98%
    01:00 +16°C° 1.4 mm 1 mps 678 mmHg 98%
    02:00 +15°C° 0.5 mm 1 mps 678 mmHg 97%
    03:00 +15°C° 0.5 mm 1 mps 678 mmHg 96%
    04:00 +15°C° 0.5 mm 1 mps 678 mmHg 95%
    05:00 +16°C° 0 mm 1 mps 678 mmHg 92%
    06:00 +18°C° 0 mm 1 mps 679 mmHg 90%
    07:00 +17°C° 0 mm 0 mps 679 mmHg 88%
    08:00 +20°C° 0.1 mm 1 mps 680 mmHg 79%
    09:00 +22°C° 0.1 mm 1 mps 680 mmHg 69%
    10:00 +24°C° 0.1 mm 1 mps 681 mmHg 60%
    11:00 +24°C° 0.7 mm 1 mps 680 mmHg 64%
    12:00 +24°C° 0.7 mm 1 mps 680 mmHg 68%
    13:00 +24°C° 0.7 mm 2 mps 680 mmHg 72%
    14:00 +24°C° 0.4 mm 2 mps 680 mmHg 71%
    15:00 +24°C° 0.4 mm 2 mps 680 mmHg 70%
    16:00 +24°C° 0.4 mm 2 mps 680 mmHg 69%
    17:00 +23°C° 0.5 mm 1 mps 680 mmHg 77%
    18:00 +22°C° 0.5 mm 1 mps 680 mmHg 86%
    19:00 +20°C° 0.5 mm 1 mps 680 mmHg 94%
    20:00 +17°C° 0.2 mm 0 mps 680 mmHg 95%
    21:00 +16°C° 0.2 mm 0 mps 680 mmHg 95%
    22:00 +15°C° 0.2 mm 0 mps 680 mmHg 96%
    23:00 +14°C° 0 mm 0 mps 680 mmHg 96%

    22 July, Monday

    Time Temperature Precipitation Wind Pressure Humidity
    00:00 +14°C° 0 mm 0 mps 680 mmHg 96%
    01:00 +15°C° 0 mm 1 mps 680 mmHg 95%
    02:00 +14°C° 0 mm 1 mps 680 mmHg 95%
    03:00 +14°C° 0 mm 1 mps 679 mmHg 95%
    04:00 +14°C° 0 mm 1 mps 679 mmHg 95%
    05:00 +14°C° 0 mm 0 mps 680 mmHg 94%
    06:00 +15°C° 0 mm 0 mps 680 mmHg 92%
    07:00 +17°C° 0 mm 0 mps 680 mmHg 91%
    08:00 +21°C° 0 mm 1 mps 680 mmHg 80%
    09:00 +23°C° 0 mm 1 mps 681 mmHg 69%
    10:00 +25°C° 0 mm 1 mps 681 mmHg 58%
    11:00 +25°C° 0.1 mm 2 mps 681 mmHg 58%
    12:00 +26°C° 0.1 mm 2 mps 681 mmHg 58%
    13:00 +26°C° 0.1 mm 2 mps 680 mmHg 58%
    14:00 +25°C° 0.6 mm 2 mps 680 mmHg 62%
    15:00 +25°C° 0.6 mm 2 mps 680 mmHg 65%
    16:00 +25°C° 0.6 mm 2 mps 680 mmHg 69%
    17:00 +24°C° 1.1 mm 1 mps 680 mmHg 75%
    18:00 +22°C° 1.1 mm 1 mps 679 mmHg 82%
    19:00 +21°C° 1.1 mm 1 mps 679 mmHg 88%
    20:00 +18°C° 0.5 mm 0 mps 679 mmHg 90%
    21:00 +17°C° 0.5 mm 0 mps 679 mmHg 93%
    22:00 +16°C° 0.5 mm 0 mps 679 mmHg 96%
    23:00 +15°C° 0 mm 0 mps 679 mmHg 96%
    Show more